[[{"header":{"parameterUnit":"m.s-1","parameterCategory":1,"la1":30.2991,"la2":30.254,"lo1":-89.0895,"lo2":-89.0444,"dy":0.0017,"dx":0.0017,"nx":28,"ny":28,"refTime":"2025-01-25T03:00:00:Z","depth":0,"parameterNumber":2,"parameterNumberName":"U-component_of_WINDS"},"data":[0,0,0,0,0,0,0,0,0,0,0,0,0,0,0,0,0,0,0,0,0,0,0,0,0,0,0,0,0,0,0,0,0,0,0,0,0,0,0,0,0,0,0,0,0,0,0,0,0,0,0,0,0,0,0,0,0,0,-2.5914,-2.5915,0,-2.6024,-2.6025,-2.6026,-2.609,-2.609,-2.609,-2.6091,-2.6198,-2.6201,-2.6203,0,0,0,0,0,0,0,0,0,0,0,0,0,-2.5752,-2.5755,-2.5914,-2.5915,-2.5917,-2.6024,-2.6025,-2.6027,-2.609,-2.609,-2.609,-2.6091,-2.6197,-2.6201,-2.6204,0,0,0,0,0,0,0,0,0,0,0,0,0,-2.5838,-2.5755,-2.5914,-2.5961,-2.5967,-2.6023,-2.6025,-2.6027,-2.609,-2.609,-2.6091,-2.6091,-2.6196,-2.62,-2.6204,-2.6221,0,0,-2.6216,-2.6218,0,0,0,0,0,0,0,0,-2.5833,-2.5844,-2.5953,-2.5958,-2.5964,-2.6044,-2.6008,-2.6092,-2.609,-2.6043,-2.6091,-2.6091,-2.6146,-2.6154,-2.6174,-2.6226,-2.623,-2.6217,-2.6219,-2.6221,-2.6222,0,0,0,0,0,0,0,-2.5827,-2.5839,-2.5957,-2.5954,-2.5961,-2.5975,-2.5987,-2.6024,-2.6091,-2.6047,-2.6052,-2.6064,-2.6149,-2.617,-2.6177,-2.6232,-2.6216,-2.622,-2.6222,-2.6224,-2.63,-2.6299,0,0,0,0,0,0,-2.5814,-2.5834,-2.5954,-2.5961,-2.5898,-2.5977,-2.5992,-2.6018,-2.6091,-2.6102,-2.6064,-2.6067,-2.6163,-2.6172,-2.6181,-2.6204,-2.6221,-2.6224,-2.6227,-2.63,-2.63,-2.6299,0,0,0,0,0,0,-2.581,-2.5824,-2.5949,-2.5899,-2.5916,-2.598,-2.6009,-2.602,-2.6041,-2.6104,-2.6115,-2.6073,-2.6164,-2.6175,-2.621,-2.6208,-2.6226,-2.623,-2.63,-2.63,-2.6299,-2.625,0,0,0,0,0,0,-2.5806,-2.5823,-2.5831,-2.5899,-2.5918,-2.5979,-2.6009,-2.6022,-2.6048,-2.6053,-2.6115,-2.6126,-2.6165,-2.6204,-2.6214,-2.6214,-2.6233,-2.6301,-2.63,-2.63,-2.6252,-2.6247,-2.6244,0,0,0,0,0,-2.58,-2.5813,-2.5832,-2.5846,-2.5931,-2.5979,-2.599,-2.6036,-2.6047,-2.6055,-2.6095,-2.6124,-2.6207,-2.6207,-2.6219,-2.622,-2.6301,-2.63,-2.63,-2.6254,-2.6248,-2.6244,0,0,0,0,0,0,-2.5743,-2.5823,-2.5844,-2.588,-2.5922,-2.5989,-2.6001,-2.6029,-2.6068,-2.607,-2.6124,-2.6138,-2.6166,-2.6197,-2.6195,-2.6238,-2.6257,-2.6258,-2.6218,-2.6213,-2.6209,-2.6201,-2.6236,0,0,0,0,0,-2.5735,-2.5769,-2.5836,-2.586,-2.588,-2.5937,-2.5959,-2.5991,-2.6036,-2.6054,-2.6097,-2.6138,-2.6173,-2.6195,-2.6231,-2.6256,-2.6269,-2.6262,-2.6258,-2.6255,-2.6255,-2.6268,-2.6265,-2.6297,-2.6297,-2.6297,0,0,-2.5718,-2.5766,-2.5784,-2.585,-2.5887,-2.5918,-2.5951,-2.5984,-2.6007,-2.6058,-2.6094,-2.6126,-2.6175,-2.6205,-2.622,-2.6231,-2.6249,-2.6254,-2.6251,-2.6253,-2.6267,-2.6264,-2.6261,-2.6296,-2.6296,-2.6296,0,0,-2.5703,-2.5744,-2.5768,-2.5803,-2.5858,-2.5895,-2.59,-2.5963,-2.5986,-2.6023,-2.6061,-2.6088,-2.6148,-2.6181,-2.6205,-2.6199,-2.6226,-2.6209,-2.6189,-2.6201,-2.6198,-2.6196,-2.6192,-2.619,-2.621,-2.621,-2.621,0,-2.5675,-2.5727,-2.5776,-2.5806,-2.5833,-2.5881,-2.5904,-2.5936,-2.5998,-2.6015,-2.6026,-2.6101,-2.6138,-2.6174,-2.6172,-2.6191,-2.6197,-2.6203,-2.6195,-2.6193,-2.6192,-2.6189,-2.6187,-2.6207,-2.6208,-2.6208,-2.6208,0,-2.5688,-2.5722,-2.5735,-2.5795,-2.5823,-2.5849,-2.5901,-2.5923,-2.5951,-2.5985,-2.602,-2.6065,-2.611,-2.6121,-2.6149,-2.616,-2.6165,-2.6185,-2.6205,-2.6186,-2.6183,-2.6183,-2.6204,-2.6205,-2.6205,-2.6206,0,0,-2.5643,-2.5729,-2.5732,-2.5759,-2.5821,-2.5848,-2.5874,-2.5919,-2.5936,-2.5976,-2.5998,-2.6047,-2.6065,-2.6092,-2.6124,-2.6134,-2.6124,-2.6153,-2.6155,-2.6144,-2.6136,-2.612,-2.6118,-2.6142,-2.6142,-2.6142,-2.6131,0,-2.5637,-2.569,-2.5733,-2.5769,-2.5799,-2.5843,-2.5866,-2.5905,-2.5938,-2.5966,-2.6001,-2.6034,-2.6057,-2.6073,-2.6085,-2.6122,-2.6123,-2.6124,-2.6161,-2.6161,-2.6146,-2.6117,-2.6101,-2.6089,-2.6131,-2.6131,-2.6131,0,-2.5638,-2.5677,-2.5715,-2.5771,-2.5786,-2.5806,-2.5849,-2.5877,-2.592,-2.5943,-2.5972,-2.6004,-2.6032,-2.6048,-2.6085,-2.6085,-2.6102,-2.6122,-2.6122,-2.6127,-2.6144,-2.6119,-2.6087,-2.6084,-2.613,-2.613,-2.613,0,-2.5599,-2.5661,-2.5691,-2.5713,-2.578,-2.5792,-2.582,-2.5865,-2.5888,-2.5924,-2.5939,-2.5978,-2.5999,-2.6027,-2.6067,-2.6076,-2.6099,-2.612,-2.6116,-2.6115,-2.6119,-2.6118,-2.6087,-2.6131,-2.6131,-2.6131,-2.6131,0,-2.5587,-2.5608,-2.5675,-2.5693,-2.5717,-2.5765,-2.5787,-2.5819,-2.5857,-2.588,-2.592,-2.5941,-2.5994,-2.602,-2.6052,-2.6076,-2.6086,-2.6103,-2.6111,-2.6099,-2.6096,-2.611,-2.6111,-2.6131,-2.6131,-2.6131,-2.6131,0,-2.5549,-2.5594,-2.563,-2.5689,-2.5705,-2.5719,-2.5769,-2.5787,-2.5821,-2.585,-2.5859,-2.5911,-2.5944,-2.5987,-2.6033,-2.6054,-2.6073,-2.6087,-2.6059,-2.6064,-2.6057,-2.6056,-2.6033,-2.6032,-2.6078,-2.6077,-2.6077,0,-2.5538,-2.5555,-2.5616,-2.5635,-2.5662,-2.5692,-2.5716,-2.5763,-2.5785,-2.5834,-2.5845,-2.5881,-2.5912,-2.5961,-2.6002,-2.6036,-2.605,-2.6039,-2.6055,-2.6041,-2.6047,-2.6045,-2.6046,-2.6035,-2.6034,-2.6034,-2.6033,0,-2.5514,-2.5535,-2.5568,-2.5607,-2.5634,-2.5667,-2.5702,-2.5714,-2.5768,-2.579,-2.5824,-2.5848,-2.5894,-2.5928,-2.5967,-2.5994,-2.6021,-2.6028,-2.6029,-2.6016,-2.5998,-2.6006,-2.6047,-2.6028,-2.6029,-2.6029,-2.6029,-2.603,-2.5488,-2.5504,-2.5549,-2.5583,-2.5614,-2.5645,-2.5664,-2.5699,-2.5729,-2.577,-2.5796,-2.5828,-2.5867,-2.5923,-2.5948,-2.5972,-2.5983,-2.5985,-2.5985,-2.5984,-2.5979,-2.5995,-2.5979,-2.598,-2.598,-2.598,-2.598,0,-2.5465,-2.5495,-2.5526,-2.5573,-2.5598,-2.5623,-2.5661,-2.5681,-2.5709,-2.5744,-2.5773,-2.581,-2.5842,-2.5884,-2.5919,-2.593,-2.5943,-2.5937,-2.5936,-2.5941,-2.5968,-2.5963,-2.5925,-2.5925,-2.5925,-2.5925,-2.5926,-2.5926,-2.5455,-2.5483,-2.5508,-2.555,-2.558,-2.5612,-2.5632,-2.5659,-2.5687,-2.5727,-2.5754,-2.5781,-2.5818,-2.5855,-2.5884,-2.5896,-2.5906,-2.5895,-2.591,-2.5935,-2.594,-2.5944,-2.594,-2.5898,-2.5898,-2.5881,-2.5881,-2.5881]},{"header":{"parameterUnit":"m.s-1","parameterCategory":1,"la1":30.2991,"la2":30.254,"lo1":-89.0895,"lo2":-89.0444,"dy":0.0017,"dx":0.0017,"nx":28,"ny":28,"refTime":"2025-01-25T03:00:00:Z","depth":0,"parameterNumber":3,"parameterNumberName":"V-component_of_WINDS"},"data":[0,0,0,0,0,0,0,0,0,0,0,0,0,0,0,0,0,0,0,0,0,0,0,0,0,0,0,0,0,0,0,0,0,0,0,0,0,0,0,0,0,0,0,0,0,0,0,0,0,0,0,0,0,0,0,0,0,0,2.052,2.0523,0,2.0752,2.0755,2.0758,2.0729,2.0725,2.0721,2.0718,2.096,2.097,2.098,0,0,0,0,0,0,0,0,0,0,0,0,0,2.0058,2.0067,2.052,2.0523,2.0526,2.0752,2.0755,2.0758,2.073,2.0725,2.072,2.0716,2.0957,2.0969,2.0981,0,0,0,0,0,0,0,0,0,0,0,0,0,2.0272,2.007,2.0519,2.0538,2.0542,2.0751,2.0755,2.0759,2.0731,2.0725,2.0719,2.0714,2.0953,2.0968,2.0983,2.1188,0,0,2.1028,2.1035,0,0,0,0,0,0,0,0,2.026,2.0289,2.0533,2.0538,2.0542,2.0706,2.0681,2.0903,2.0732,2.0659,2.0718,2.0711,2.0881,2.0901,2.0957,2.12,2.121,2.103,2.1039,2.1045,2.1049,0,0,0,0,0,0,0,2.0245,2.0279,2.0612,2.0536,2.0542,2.0538,2.0562,2.0723,2.0799,2.0665,2.0664,2.0691,2.0882,2.0943,2.0963,2.1214,2.1029,2.1043,2.1052,2.1058,2.1643,2.1649,0,0,0,0,0,0,2.0224,2.0266,2.0605,2.0619,2.0384,2.0551,2.0578,2.0659,2.0797,2.0813,2.0696,2.0689,2.092,2.0945,2.0971,2.1226,2.1045,2.1059,2.1068,2.1636,2.1644,2.1651,0,0,0,0,0,0,2.0215,2.0255,2.0595,2.0442,2.0485,2.0565,2.0657,2.0667,2.0727,2.082,2.0834,2.0744,2.0917,2.095,2.1136,2.1234,2.1066,2.1079,2.1629,2.1639,2.1648,2.1734,0,0,0,0,0,0,2.0201,2.0251,2.0329,2.0444,2.0494,2.0754,2.0662,2.0675,2.0753,2.0746,2.0869,2.0884,2.0915,2.1114,2.1151,2.1251,2.1091,2.162,2.1633,2.1645,2.1723,2.1746,2.1765,0,0,0,0,0,2.0185,2.0344,2.0333,2.0374,2.0592,2.0759,2.0788,2.0819,2.0761,2.0841,2.0901,2.088,2.1216,2.1133,2.1174,2.1281,2.1614,2.163,2.1644,2.1714,2.1741,2.1765,0,0,0,0,0,0,2.0238,2.0359,2.0348,2.0548,2.0644,2.0754,2.0856,2.0847,2.0962,2.0951,2.0986,2.1014,2.1203,2.1259,2.1164,2.149,2.1408,2.1431,2.1447,2.1474,2.1494,2.1479,2.1104,0,0,0,0,0,2.0273,2.0398,2.0497,2.0664,2.0712,2.0776,2.085,2.0866,2.0967,2.1008,2.1081,2.1182,2.131,2.1394,2.1517,2.173,2.1759,2.1824,2.1845,2.1862,2.1884,2.2006,2.2038,2.17,2.17,2.17,0,0,2.0347,2.0428,2.0505,2.0677,2.0753,2.0884,2.081,2.0951,2.105,2.1029,2.121,2.1268,2.1382,2.1584,2.1676,2.1637,2.1983,2.1881,2.1894,2.1907,2.2024,2.2056,2.2085,2.171,2.1708,2.1707,0,0,2.055,2.0621,2.0771,2.0849,2.0964,2.1006,2.1042,2.1155,2.1193,2.1374,2.1363,2.1481,2.1701,2.1785,2.1856,2.2093,2.208,2.2132,2.2244,2.2363,2.2389,2.2413,2.2503,2.2534,2.2152,2.2152,2.2153,0,2.0628,2.0823,2.0849,2.0993,2.1072,2.1058,2.1212,2.1287,2.1437,2.1493,2.1446,2.1725,2.18,2.2024,2.2082,2.2138,2.2184,2.212,2.2383,2.2407,2.243,2.2516,2.2549,2.2158,2.2158,2.2157,2.2156,0,2.0915,2.1051,2.1158,2.1305,2.1394,2.1542,2.1595,2.1683,2.1691,2.1738,2.1926,2.2016,2.216,2.2213,2.2222,2.244,2.2413,2.2374,2.2293,2.2468,2.255,2.2582,2.2167,2.2165,2.2163,2.2161,0,0,2.1159,2.1319,2.1359,2.1427,2.1554,2.1661,2.181,2.195,2.2027,2.2131,2.2261,2.2448,2.2414,2.2495,2.2514,2.2617,2.2806,2.2567,2.257,2.2613,2.3058,2.3089,2.3127,2.2796,2.2803,2.2808,2.305,0,2.1378,2.1641,2.1671,2.1906,2.2035,2.2025,2.2155,2.2249,2.2298,2.2416,2.247,2.2605,2.2547,2.2597,2.2698,2.2761,2.2897,2.2744,2.2922,2.2928,2.2898,2.3169,2.3202,2.3426,2.3081,2.3087,2.309,0,2.1669,2.1783,2.2031,2.2144,2.2199,2.2316,2.2449,2.256,2.2668,2.2697,2.2789,2.2795,2.2952,2.2861,2.3082,2.2978,2.3052,2.3094,2.3103,2.3125,2.3023,2.3203,2.3498,2.3533,2.314,2.3136,2.3133,0,2.1829,2.2043,2.2221,2.2278,2.2414,2.2497,2.2558,2.266,2.2743,2.2859,2.2915,2.3048,2.3122,2.3226,2.327,2.3198,2.349,2.3401,2.3522,2.3522,2.3588,2.3584,2.3904,2.3627,2.3626,2.3626,2.3625,0,2.2073,2.2227,2.2295,2.2405,2.2578,2.2611,2.2783,2.284,2.2932,2.3055,2.3053,2.3169,2.3217,2.3342,2.3376,2.3557,2.3589,2.362,2.3628,2.3623,2.362,2.3675,2.3663,2.3635,2.3633,2.3631,2.3629,0,2.2283,2.2333,2.2528,2.264,2.2672,2.2795,2.2893,2.3001,2.3048,2.3205,2.3243,2.3319,2.3466,2.3518,2.3697,2.372,2.3932,2.3924,2.3896,2.3899,2.4019,2.4009,2.439,2.4444,2.4127,2.4129,2.4132,0,2.2437,2.2556,2.2681,2.2763,2.2827,2.2959,2.3044,2.3082,2.3172,2.3306,2.3399,2.3544,2.3664,2.39,2.3972,2.411,2.411,2.4234,2.4131,2.4123,2.4118,2.4113,2.4128,2.4254,2.4258,2.426,2.4262,0,2.2709,2.2729,2.2851,2.2985,2.3086,2.3193,2.3296,2.3364,2.3418,2.3519,2.3669,2.3762,2.3945,2.4092,2.4233,2.4298,2.4293,2.4294,2.433,2.4329,2.4309,2.4327,2.3954,2.4286,2.4283,2.4282,2.428,2.428,2.29,2.3006,2.3113,2.325,2.3332,2.3429,2.3538,2.3599,2.3724,2.3876,2.3891,2.4054,2.4163,2.4352,2.4424,2.4554,2.4521,2.4572,2.4586,2.4599,2.4611,2.4284,2.458,2.4579,2.4578,2.4578,2.4577,0,2.3176,2.3244,2.337,2.3515,2.3625,2.3606,2.372,2.3814,2.3957,2.4058,2.4176,2.4351,2.4494,2.4578,2.4722,2.4811,2.4812,2.4848,2.4845,2.4861,2.463,2.4587,2.4845,2.4845,2.4845,2.4845,2.4845,2.4845,2.3333,2.3514,2.3547,2.377,2.3837,2.3997,2.4065,2.4156,2.4237,2.4433,2.4551,2.4604,2.47,2.4852,2.4984,2.5005,2.5061,2.5101,2.512,2.4904,2.4877,2.485,2.481,2.5111,2.5112,2.5341,2.5343,2.5345]}]]